Stations météo

réclame
Mon MeteoGroup
Torino/Caselle, Italie (16059): Température de l'air & dewpoint: 07.12.2017 00:00:00 - 13.12.2017 00:00:00 (CET)Torino/Caselle, Italie (16059): Vitesse du vent: 07.12.2017 00:00:00 - 13.12.2017 00:00:00 (CET)Torino/Caselle, Italie (16059): Direction du vent: 07.12.2017 00:00:00 - 13.12.2017 00:00:00 (CET)Torino/Caselle, Italie (16059): reduced air pressure: 07.12.2017 00:00:00 - 13.12.2017 00:00:00 (CET)Torino/Caselle, Italie (16059): visibility: 07.12.2017 00:00:00 - 13.12.2017 00:00:00 (CET)Torino/Caselle, Italie (16059): Quantités de précipitations: 07.12.2017 00:00:00 - 13.12.2017 00:00:00 (CET)
Date & Time tt [°C] td [°C] ff [km/h] ff [knt] dd ppp [hPa] vv [km] rr [mm]
13.12.2017 00:00:00 -2,0 -2,0 8 4 SSW - 10 -
12.12.2017 23:00:00 -1,0 -2,0 4 2 - - 4,0 -
12.12.2017 22:00:00 -0,9 -1,3 5 3 - 1014,4 1,8 0,0
12.12.2017 21:00:00 0,0 -1,0 8 4 SW - 0,2 -
12.12.2017 20:00:00 1,0 1,0 4 2 - - 3,0 -
12.12.2017 19:00:00 0,8 0,3 4 2 SW 1012,5 3,0 -
12.12.2017 18:00:00 1,0 0,0 4 2 - - 3,5 -
12.12.2017 17:00:00 3,0 1,0 5 3 WNW - 10 -
12.12.2017 16:00:00 4,1 1,2 5 3 SW 1010,5 10 0,0
12.12.2017 15:00:00 3,0 1,0 4 2 - - 9 -
12.12.2017 14:00:00 1,0 0,0 5 3 ESE - 9 -
12.12.2017 13:00:00 2,5 0,3 11 6 WSW 1008,9 10 -
12.12.2017 12:00:00 1,0 0,0 8 4 WSW - 10 -
12.12.2017 11:00:00 -1,0 -1,0 9 5 WSW - 10 -
12.12.2017 10:00:00 -2,4 -2,8 2 1 - 1007,9 10 0,0
12.12.2017 09:00:00 -3,0 -3,0 2 1 - - 10 -
12.12.2017 08:00:00 -4,0 -5,0 4 2 - - 0,4 -
12.12.2017 07:00:00 -3,0 -3,4 5 3 NNW 1004,1 0,5 -
12.12.2017 06:00:00 -3,0 -4,0 2 1 - - 0,1 -
12.12.2017 05:00:00 -2,0 -3,0 5 3 W - 0,7 -
12.12.2017 04:00:00 -2,0 -2,4 5 3 SE 1001,6 0,2 0,0
12.12.2017 03:00:00 0,0 0,0 2 1 - - 0,5 -
12.12.2017 02:00:00 1,0 0,0 8 4 SW - 3,0 -
12.12.2017 01:00:00 0,7 0,3 4 2 - 998,4 5 -
12.12.2017 00:00:00 1,0 0,0 8 4 WSW - 3,0 -
11.12.2017 23:00:00 0,0 0,0 5 3 SE - 1,5 -
11.12.2017 22:00:00 0,5 0,2 2 1 - 995,3 1,5 0,0
11.12.2017 21:00:00 0,0 0,0 2 1 - - 1,0 -
11.12.2017 20:00:00 0,0 0,0 2 1 - - 1,1 -
11.12.2017 19:00:00 0,3 -0,1 4 2 - 995,4 1,2 -
11.12.2017 18:00:00 0,0 0,0 5 3 SSW - 1,2 -
11.12.2017 17:00:00 0,0 0,0 4 2 SSW - 1,1 -
11.12.2017 16:00:00 0,4 -0,1 2 1 - 996,1 0,6 0,0
11.12.2017 15:00:00 0,0 0,0 4 2 - - 1,0 -
11.12.2017 14:00:00 1,0 0,0 4 2 S - 1,2 -
11.12.2017 13:00:00 0,0 -0,9 5 3 SSW 998,1 1,0 -
11.12.2017 12:00:00 - - - - - - - -
11.12.2017 11:00:00 -1,0 -2,0 5 3 W - 1,5 -
11.12.2017 10:00:00 -1,1 -1,9 5 3 W 999,8 1,5 0,0
11.12.2017 09:00:00 -1,0 -2,0 5 3 SW - 2,5 -
11.12.2017 08:00:00 -1,0 -3,0 2 1 - - 3,0 -
11.12.2017 07:00:00 -0,9 -3,4 4 2 NE 1000,3 10 -
11.12.2017 06:00:00 -1,0 -4,0 2 1 - - 10 -
11.12.2017 05:00:00 -1,0 -4,0 4 2 - - 10 -
11.12.2017 04:00:00 -0,7 -4,0 2 1 - 1001,8 10 0,0
11.12.2017 03:00:00 -1,0 -4,0 2 1 - - 10 -
11.12.2017 02:00:00 0,0 -4,0 2 1 - - 10 -
11.12.2017 01:00:00 -0,5 -3,9 4 2 - 1003,9 10 -
11.12.2017 00:00:00 0,0 -4,0 4 2 - - 10 -
10.12.2017 23:00:00 0,0 -4,0 9 5 NNW - 10 -
10.12.2017 22:00:00 -0,1 -3,9 8 4 WNW 1005,0 10 0,0
10.12.2017 21:00:00 0,0 -4,0 5 3 E - 10 -
10.12.2017 20:00:00 0,0 -5,0 11 6 E - 10 -
10.12.2017 19:00:00 0,5 -5,3 13 7 WNW 1005,8 10 -
10.12.2017 18:00:00 0,0 -5,0 13 7 NW - 10 -
10.12.2017 17:00:00 0,0 -5,0 18 10 NW - 10 -
10.12.2017 16:00:00 1,3 -5,4 9 5 N 1007,2 10 0,0
10.12.2017 15:00:00 2,0 -4,0 11 6 N - 10 -
10.12.2017 14:00:00 2,0 -4,0 18 10 WNW - 10 -
10.12.2017 13:00:00 2,6 -6,0 8 4 W 1009,7 10 -
10.12.2017 12:00:00 2,0 -11,0 4 2 - - 10 -
10.12.2017 11:00:00 2,0 -8,0 5 3 S - 10 -
10.12.2017 10:00:00 -0,1 -6,1 4 2 S 1012,5 10 0,0
10.12.2017 09:00:00 0,0 -10,0 5 3 WNW - 10 -
10.12.2017 08:00:00 -1,0 -11,0 4 2 - - 10 -
10.12.2017 07:00:00 -1,8 -12,6 4 2 NW 1013,0 10 -
10.12.2017 06:00:00 -3,0 -13,0 2 1 - - 10 -
10.12.2017 05:00:00 -3,0 -12,0 4 2 - - 10 -
10.12.2017 04:00:00 -1,5 -13,0 5 3 WNW 1014,1 10 0,0
10.12.2017 03:00:00 -3,0 -12,0 5 3 WNW - 10 -
10.12.2017 02:00:00 -3,0 -12,0 8 4 N - 10 -
10.12.2017 01:00:00 -2,1 -12,1 4 2 - 1015,6 10 -
10.12.2017 00:00:00 0,0 -13,0 4 2 NW - 10 -
09.12.2017 23:00:00 0,0 -14,0 4 2 NNW - 10 -
09.12.2017 22:00:00 -0,5 -12,8 5 3 NNE 1015,9 10 0,0
09.12.2017 21:00:00 1,0 -13,0 11 6 WNW - 10 -
09.12.2017 20:00:00 1,0 -12,0 8 4 WNW - 10 -
09.12.2017 19:00:00 1,8 -13,5 5 3 NE 1015,5 10 -
09.12.2017 18:00:00 5,0 -16,0 9 5 W - 10 -
09.12.2017 17:00:00 6,0 -17,0 16 9 WSW - 10 -
09.12.2017 16:00:00 6,9 -16,8 11 6 SSW 1014,5 10 0,0
09.12.2017 15:00:00 8,0 -20,0 15 8 W - 10 -
09.12.2017 14:00:00 8,0 -20,0 16 9 W - 10 -
09.12.2017 13:00:00 7,9 -19,3 22 12 W 1014,4 10 -
09.12.2017 12:00:00 8,0 -19,0 21 11 WNW - 10 -
09.12.2017 11:00:00 7,0 -19,0 16 9 WNW - 10 -
09.12.2017 10:00:00 5,6 -14,3 9 5 ESE 1014,4 10 0,0
09.12.2017 09:00:00 4,0 -16,0 9 5 WNW - 10 -
09.12.2017 08:00:00 2,0 -13,0 9 5 WNW - 10 -
09.12.2017 07:00:00 3,0 -13,0 8 4 NE 1012,1 10 -
09.12.2017 06:00:00 4,0 -14,0 5 3 N - 10 -
09.12.2017 05:00:00 6,0 -15,0 24 13 W - 10 -
09.12.2017 04:00:00 4,7 -13,7 8 4 NNW 1010,4 10 0,0
09.12.2017 03:00:00 6,0 -11,0 24 13 WSW - 10 -
09.12.2017 02:00:00 7,0 -13,0 26 14 WSW - 10 -
09.12.2017 01:00:00 7,1 -13,5 24 13 W 1009,8 10 -
09.12.2017 00:00:00 8,0 -12,0 37 20 W - 10 -
08.12.2017 23:00:00 1,0 -2,0 4 2 - - 10 -
08.12.2017 22:00:00 1,4 -1,5 8 4 SSE 1009,6 10 0,0
08.12.2017 21:00:00 3,0 -1,0 8 4 W - 10 -
08.12.2017 20:00:00 2,0 -1,0 8 4 NW - 10 -
08.12.2017 19:00:00 2,6 -1,6 4 2 - 1009,3 10 -
08.12.2017 18:00:00 5,0 0,0 8 4 SW - 10 -
08.12.2017 17:00:00 7,0 0,0 4 2 ENE - 10 -
08.12.2017 16:00:00 8,3 -0,1 4 2 - 1009,9 10 0,0
08.12.2017 15:00:00 9,0 0,0 4 2 - - 10 -
08.12.2017 14:00:00 9,0 0,0 4 2 - - 10 -
08.12.2017 13:00:00 7,5 0,3 4 2 - 1013,1 10 -
08.12.2017 12:00:00 5,0 0,0 4 2 - - 10 -
08.12.2017 11:00:00 4,0 1,0 4 2 ESE - 10 -
08.12.2017 10:00:00 3,4 0,4 2 1 - 1016,6 10 0,0
08.12.2017 09:00:00 1,0 -1,0 5 3 WSW - 10 -
08.12.2017 08:00:00 1,0 -1,0 4 2 - - 10 -
08.12.2017 07:00:00 1,0 -0,8 2 1 - 1018,3 10 -
08.12.2017 06:00:00 2,0 -1,0 4 2 - - 10 -
08.12.2017 05:00:00 1,0 -1,0 5 3 SW - 10 -
08.12.2017 04:00:00 0,9 -1,1 4 2 WSW 1020,5 10 0,0
08.12.2017 03:00:00 1,0 -2,0 2 1 - - 10 -
08.12.2017 02:00:00 1,0 -2,0 2 1 - - 10 -
08.12.2017 01:00:00 0,4 -2,0 2 1 - 1023,2 10 -
08.12.2017 00:00:00 2,0 -1,0 8 4 W - 10 -
07.12.2017 23:00:00 1,0 -1,0 5 3 WSW - 10 -
07.12.2017 22:00:00 0,9 -1,0 8 4 SSW 1025,6 10 0,0
07.12.2017 21:00:00 3,0 -1,0 8 4 WSW - 10 -
07.12.2017 20:00:00 3,0 0,0 8 4 WNW - 10 -
07.12.2017 19:00:00 3,8 -0,1 2 1 - 1026,4 10 -
07.12.2017 18:00:00 6,0 1,0 4 2 - - 10 -
07.12.2017 17:00:00 7,0 1,0 2 1 SSE - 10 -
07.12.2017 16:00:00 9,1 0,7 2 1 - 1027,3 10 0,0
07.12.2017 15:00:00 9,0 0,0 5 3 E - 10 -
07.12.2017 14:00:00 9,0 -1,0 4 2 - - 10 -
07.12.2017 13:00:00 7,5 -2,6 2 1 - 1028,9 10 -
07.12.2017 12:00:00 5,0 -1,0 4 2 - - 10 -
07.12.2017 11:00:00 5,0 -2,0 2 1 - - 10 -
07.12.2017 10:00:00 3,3 -1,9 5 3 SE 1030,3 10 0,0
07.12.2017 09:00:00 1,0 -4,0 4 2 WNW - 10 -
07.12.2017 08:00:00 -1,0 -4,0 2 1 - - 10 -
07.12.2017 07:00:00 0,3 -4,6 4 2 NW 1030,0 10 -
07.12.2017 06:00:00 0,0 -4,0 5 3 NW - 10 -
07.12.2017 05:00:00 0,0 -5,0 5 3 W - 10 -
07.12.2017 04:00:00 0,0 -4,2 4 2 - 1030,2 10 0,0
07.12.2017 03:00:00 2,0 -4,0 5 3 NNW - 10 -
07.12.2017 02:00:00 0,0 -4,0 2 1 - - 10 -
07.12.2017 01:00:00 0,8 -4,0 9 5 WNW 1030,9 10 -
07.12.2017 00:00:00 2,0 -4,0 5 3 NW - 10 -

tt = Température de l'air
td = dewpoint
ff = Vitesse du vent
dd = Direction du vent
ppp = reduced air pressure
vv = visibility
rr = Quantités de précipitations

stations d'obs. à proximité